22.7°F
Current conditions from King Hill
Updated every 5 minutes
 
  Friday November 28, 2014

Station Historical Data
Daily Summary for March 17, 2011 Units:  Metric    English   Both
« Previous Day
Next Day »
Daily Weekly Monthly Yearly Custom
  High: Low: Average:
Temperature: 11.1 °C 1.1 °C 6.3 °C
Dew Point: 1.9 °C -1.4 °C 0.5 °C
Humidity: 86% 50% 68%
Wind Speed: 17.7km/h 1.6km/h 7.6km/h
Wind Gust: 33.8km/h - -
Wind- - SW
Pressure: 1018.5 hPa 1007.3 hPa -
Precipitation: 0 mm    
Historical Graphs
 
 
Tabular Data for March 17, 2011
Time Temperature Dew Point Pressure Wind Wind Speed Wind Gust Humidity Daily Rainfall
00:04 4.2 °C 1.9 °C 1015.5 hPa WSW 9.7 km/h 20.9 km/h 85% 0 mm
00:09 4.3 °C 1.8 °C 1015.5 hPa WSW 6.4 km/h 20.9 km/h 84% 0 mm
00:14 4.2 °C 1.8 °C 1015.8 hPa WSW 8 km/h 16.1 km/h 84% 0 mm
00:19 4.2 °C 1.6 °C 1015.8 hPa WSW 8 km/h 16.1 km/h 83% 0 mm
00:24 4.2 °C 1.7 °C 1015.8 hPa WSW 9.7 km/h 17.7 km/h 84% 0 mm
00:29 4.1 °C 1.7 °C 1015.8 hPa WSW 9.7 km/h 17.7 km/h 84% 0 mm
00:34 4.1 °C 1.6 °C 1015.8 hPa WSW 11.3 km/h 19.3 km/h 84% 0 mm
00:39 4 °C 1.6 °C 1015.8 hPa West 6.4 km/h 19.3 km/h 84% 0 mm
00:44 3.9 °C 1.5 °C 1015.8 hPa WSW 8 km/h 16.1 km/h 84% 0 mm
00:49 3.8 °C 1.3 °C 1016.1 hPa SW 6.4 km/h 14.5 km/h 84% 0 mm
00:54 3.7 °C 1.4 °C 1015.8 hPa WSW 4.8 km/h 14.5 km/h 85% 0 mm
00:59 3.6 °C 1.3 °C 1015.8 hPa SW 6.4 km/h 12.9 km/h 85% 0 mm
01:04 3.6 °C 1.3 °C 1016.1 hPa WSW 6.4 km/h 20.9 km/h 85% 0 mm
01:09 3.5 °C 1.2 °C 1016.1 hPa WSW 6.4 km/h 20.9 km/h 85% 0 mm
01:14 3.5 °C 1.2 °C 1016.1 hPa WSW 1.6 km/h 11.3 km/h 85% 0 mm
01:19 3.3 °C 1.1 °C 1016.1 hPa WSW 3.2 km/h 12.9 km/h 85% 0 mm
01:24 3.2 °C 0.9 °C 1015.8 hPa SW 4.8 km/h 12.9 km/h 85% 0 mm
01:30 3.2 °C 1.1 °C 1016.1 hPa SW 4.8 km/h 9.7 km/h 86% 0 mm
01:34 3.2 °C 1.1 °C 1016.1 hPa WSW 4.8 km/h 8 km/h 86% 0 mm
01:39 3.1 °C 1 °C 1016.1 hPa West 3.2 km/h 8 km/h 86% 0 mm
01:44 3.1 °C 1 °C 1016.1 hPa SW 1.6 km/h 9.7 km/h 86% 0 mm
01:49 3.1 °C 1 °C 1016.1 hPa West 3.2 km/h 9.7 km/h 86% 0 mm
01:54 3.1 °C 0.9 °C 1016.5 hPa WSW 1.6 km/h 8 km/h 86% 0 mm
01:59 3 °C 0.9 °C 1016.1 hPa WSW 4.8 km/h 8 km/h 86% 0 mm
02:04 2.9 °C 0.8 °C 1016.1 hPa WSW 4.8 km/h 9.7 km/h 86% 0 mm
02:09 3 °C 0.9 °C 1016.1 hPa WSW 4.8 km/h 9.7 km/h 86% 0 mm
02:14 3 °C 0.9 °C 1015.8 hPa SW 4.8 km/h 8 km/h 86% 0 mm
02:19 2.9 °C 0.8 °C 1015.8 hPa SW 4.8 km/h 8 km/h 86% 0 mm
02:24 3.1 °C 0.9 °C 1016.1 hPa SW 4.8 km/h 9.7 km/h 86% 0 mm
02:29 3.1 °C 0.9 °C 1016.1 hPa WSW 6.4 km/h 9.7 km/h 86% 0 mm
02:34 3.1 °C 0.8 °C 1016.1 hPa SW 6.4 km/h 11.3 km/h 85% 0 mm
02:39 3.2 °C 0.9 °C 1016.1 hPa WSW 4.8 km/h 11.3 km/h 85% 0 mm
02:44 3.2 °C 0.8 °C 1016.1 hPa SW 4.8 km/h 8 km/h 84% 0 mm
02:49 3.3 °C 0.8 °C 1016.1 hPa SW 6.4 km/h 9.7 km/h 84% 0 mm
02:54 3.3 °C 0.7 °C 1016.1 hPa SW 6.4 km/h 11.3 km/h 83% 0 mm
02:59 3.4 °C 0.8 °C 1016.1 hPa SW 6.4 km/h 12.9 km/h 83% 0 mm
03:04 3.4 °C 0.7 °C 1016.1 hPa WSW 3.2 km/h 12.9 km/h 82% 0 mm
03:09 3.5 °C 0.7 °C 1016.1 hPa WSW 6.4 km/h 11.3 km/h 82% 0 mm
03:14 3.4 °C 0.7 °C 1016.1 hPa SW 6.4 km/h 12.9 km/h 82% 0 mm
03:19 3.5 °C 0.7 °C 1016.1 hPa WSW 8 km/h 12.9 km/h 82% 0 mm
03:24 3.5 °C 0.6 °C 1016.1 hPa WSW 6.4 km/h 12.9 km/h 81% 0 mm
03:29 3.4 °C 0.5 °C 1016.1 hPa WSW 8 km/h 14.5 km/h 81% 0 mm
03:34 3.4 °C 0.4 °C 1016.1 hPa WSW 6.4 km/h 14.5 km/h 81% 0 mm
03:39 3.3 °C 0.3 °C 1016.1 hPa WSW 8 km/h 14.5 km/h 81% 0 mm
03:44 3.2 °C 0.3 °C 1016.5 hPa WSW 9.7 km/h 19.3 km/h 81% 0 mm
03:49 3.3 °C 0.3 °C 1016.1 hPa WSW 8 km/h 19.3 km/h 81% 0 mm
03:55 3.3 °C 0.3 °C 1016.5 hPa WSW 8 km/h 17.7 km/h 81% 0 mm
03:59 3.2 °C 0.2 °C 1016.5 hPa WSW 8 km/h 17.7 km/h 81% 0 mm
04:04 3.1 °C 0.3 °C 1016.5 hPa WSW 8 km/h 16.1 km/h 82% 0 mm
04:09 3 °C 0.2 °C 1016.5 hPa WSW 8 km/h 14.5 km/h 82% 0 mm
04:14 2.9 °C 0.2 °C 1016.8 hPa SW 6.4 km/h 16.1 km/h 82% 0 mm
04:19 2.9 °C -0.1 °C 1016.8 hPa WSW 6.4 km/h 16.1 km/h 81% 0 mm
04:24 2.8 °C 0 °C 1016.8 hPa SW 6.4 km/h 12.9 km/h 82% 0 mm
04:29 2.8 °C 0 °C 1016.8 hPa SW 6.4 km/h 12.9 km/h 82% 0 mm
04:34 2.7 °C -0.1 °C 1016.8 hPa WSW 8 km/h 14.5 km/h 82% 0 mm
04:39 2.6 °C -0.2 °C 1016.8 hPa WSW 6.4 km/h 14.5 km/h 82% 0 mm
04:44 2.5 °C -0.3 °C 1016.8 hPa WSW 4.8 km/h 11.3 km/h 82% 0 mm
04:49 2.5 °C -0.3 °C 1016.8 hPa WSW 4.8 km/h 14.5 km/h 82% 0 mm
04:54 2.6 °C -0.2 °C 1016.8 hPa WSW 6.4 km/h 16.1 km/h 82% 0 mm
05:04 2.5 °C -0.3 °C 1016.8 hPa WSW 6.4 km/h 14.5 km/h 82% 0 mm
05:09 2.5 °C -0.3 °C 1016.8 hPa WSW 6.4 km/h 14.5 km/h 82% 0 mm
05:14 2.3 °C -0.4 °C 1016.8 hPa SW 4.8 km/h 14.5 km/h 82% 0 mm
05:19 2.2 °C -0.4 °C 1016.8 hPa SW 6.4 km/h 9.7 km/h 83% 0 mm
05:24 2.2 °C -0.4 °C 1016.8 hPa SW 4.8 km/h 9.7 km/h 83% 0 mm
05:29 2 °C -0.7 °C 1016.8 hPa SW 4.8 km/h 9.7 km/h 82% 0 mm
05:34 1.8 °C -0.7 °C 1017.2 hPa SW 4.8 km/h 9.7 km/h 83% 0 mm
05:39 1.6 °C -0.8 °C 1017.2 hPa SW 4.8 km/h 9.7 km/h 84% 0 mm
05:44 1.6 °C -0.8 °C 1017.5 hPa SW 4.8 km/h 9.7 km/h 84% 0 mm
05:49 1.6 °C -0.8 °C 1017.5 hPa SW 6.4 km/h 9.7 km/h 84% 0 mm
05:54 1.7 °C -0.7 °C 1017.5 hPa SW 6.4 km/h 11.3 km/h 84% 0 mm
05:59 1.6 °C -1 °C 1017.5 hPa SW 3.2 km/h 11.3 km/h 83% 0 mm
06:04 1.5 °C -0.9 °C 1017.5 hPa SW 4.8 km/h 9.7 km/h 84% 0 mm
06:09 1.5 °C -0.9 °C 1017.5 hPa SSW 4.8 km/h 9.7 km/h 84% 0 mm
06:14 1.4 °C -0.9 °C 1017.5 hPa SSW 4.8 km/h 9.7 km/h 84% 0 mm
06:19 1.4 °C -1 °C 1017.5 hPa SW 4.8 km/h 8 km/h 84% 0 mm
06:24 1.3 °C -1.1 °C 1017.5 hPa SSW 3.2 km/h 8 km/h 84% 0 mm
06:29 1.3 °C -1.1 °C 1017.5 hPa SSW 4.8 km/h 8 km/h 84% 0 mm
06:39 1.3 °C -1.1 °C 1017.5 hPa SW 4.8 km/h 9.7 km/h 84% 0 mm
06:44 1.3 °C -1.2 °C 1017.5 hPa SW 3.2 km/h 9.7 km/h 83% 0 mm
06:49 1.5 °C -1.1 °C 1017.5 hPa SSW 3.2 km/h 8 km/h 83% 0 mm
06:54 1.3 °C -1.2 °C 1017.8 hPa SSW 3.2 km/h 8 km/h 83% 0 mm
06:59 1.2 °C -1.3 °C 1017.8 hPa SW 3.2 km/h 6.4 km/h 83% 0 mm
07:04 1.2 °C -1.3 °C 1017.8 hPa WSW 3.2 km/h 6.4 km/h 83% 0 mm
07:09 1.1 °C -1.4 °C 1017.8 hPa SW 3.2 km/h 6.4 km/h 83% 0 mm
07:14 1.2 °C -1.2 °C 1017.8 hPa SW 3.2 km/h 6.4 km/h 84% 0 mm
07:19 1.2 °C -1.3 °C 1017.8 hPa SW 3.2 km/h 6.4 km/h 83% 0 mm
07:24 1.3 °C -1.1 °C 1017.8 hPa WSW 3.2 km/h 6.4 km/h 84% 0 mm
07:29 1.3 °C -1.2 °C 1017.8 hPa WSW 1.6 km/h 8 km/h 83% 0 mm
07:34 1.4 °C -1.2 °C 1017.8 hPa SW 4.8 km/h 8 km/h 83% 0 mm
07:39 1.6 °C -1.1 °C 1017.8 hPa SW 1.6 km/h 12.9 km/h 82% 0 mm
07:44 1.7 °C -1 °C 1017.8 hPa Calm   12.9 km/h 82% 0 mm
07:49 1.8 °C -1.1 °C 1017.8 hPa WSW 1.6 km/h 12.9 km/h 81% 0 mm
07:54 1.8 °C -1.1 °C 1017.8 hPa WSW 3.2 km/h 6.4 km/h 81% 0 mm
07:59 1.8 °C -1.1 °C 1018.2 hPa WSW 3.2 km/h 6.4 km/h 81% 0 mm
08:04 2 °C -0.9 °C 1018.2 hPa WSW 1.6 km/h 6.4 km/h 81% 0 mm
08:09 2.2 °C -0.9 °C 1018.2 hPa SW 1.6 km/h 6.4 km/h 80% 0 mm
08:14 2.6 °C -0.7 °C 1018.2 hPa West 1.6 km/h 8 km/h 79% 0 mm
08:19 2.9 °C -0.6 °C 1018.2 hPa SW 3.2 km/h 8 km/h 78% 0 mm
08:24 3.2 °C -0.5 °C 1018.2 hPa Calm   6.4 km/h 77% 0 mm
08:29 3.3 °C -0.3 °C 1018.2 hPa WSW 1.6 km/h 6.4 km/h 77% 0 mm
08:34 3.4 °C -0.4 °C 1018.2 hPa SSW 3.2 km/h 8 km/h 76% 0 mm
08:39 3.4 °C -0.2 °C 1018.2 hPa SSW 3.2 km/h 8 km/h 77% 0 mm
08:44 3.6 °C -0.1 °C 1018.2 hPa SSW 3.2 km/h 9.7 km/h 77% 0 mm
08:49 3.9 °C 0.1 °C 1018.2 hPa SSW 4.8 km/h 9.7 km/h 76% 0 mm
08:55 4.1 °C 0.2 °C 1018.5 hPa South 3.2 km/h 12.9 km/h 76% 0 mm
08:59 4.3 °C 0.2 °C 1018.5 hPa SSW 1.6 km/h 12.9 km/h 75% 0 mm
09:04 4.4 °C 0.4 °C 1018.5 hPa SSW 6.4 km/h 11.3 km/h 75% 0 mm
09:09 4.6 °C 0.3 °C 1018.5 hPa SW 4.8 km/h 11.3 km/h 74% 0 mm
09:14 4.7 °C 0.3 °C 1018.5 hPa SSW 4.8 km/h 9.7 km/h 73% 0 mm
09:19 4.9 °C 0.4 °C 1018.5 hPa SW 6.4 km/h 9.7 km/h 73% 0 mm
09:24 5.1 °C 0.6 °C 1018.5 hPa SSW 3.2 km/h 14.5 km/h 73% 0 mm
09:39 5.1 °C 0.4 °C 1018.5 hPa SW 3.2 km/h 12.9 km/h 72% 0 mm
09:44 5.1 °C 0.5 °C 1018.2 hPa South 4.8 km/h 14.5 km/h 72% 0 mm
09:49 5.1 °C 0.4 °C 1018.2 hPa SW 8 km/h 14.5 km/h 72% 0 mm
09:54 4.8 °C 0.2 °C 1018.5 hPa SW 9.7 km/h 16.1 km/h 72% 0 mm
09:59 4.9 °C 0.3 °C 1018.5 hPa SSW 9.7 km/h 16.1 km/h 72% 0 mm
10:04 5.1 °C 0.5 °C 1018.5 hPa SSW 4.8 km/h 14.5 km/h 72% 0 mm
10:09 5.3 °C 0.5 °C 1018.5 hPa SSW 6.4 km/h 12.9 km/h 71% 0 mm
10:14 5.6 °C 0.5 °C 1018.2 hPa SSW 6.4 km/h 12.9 km/h 70% 0 mm
10:19 5.7 °C 0.4 °C 1018.2 hPa SSW 6.4 km/h 12.9 km/h 69% 0 mm
10:24 5.8 °C 0.4 °C 1018.2 hPa SSW 9.7 km/h 14.5 km/h 68% 0 mm
10:29 5.9 °C 0.4 °C 1018.2 hPa SSW 9.7 km/h 14.5 km/h 68% 0 mm
10:35 5.9 °C 0.5 °C 1018.2 hPa SSW 4.8 km/h 14.5 km/h 68% 0 mm
10:39 6.2 °C 0.5 °C 1017.8 hPa SSW 9.7 km/h 14.5 km/h 67% 0 mm
10:44 6.2 °C 0.6 °C 1017.8 hPa SSW 8 km/h 14.5 km/h 67% 0 mm
10:49 6.3 °C 0.4 °C 1017.8 hPa SSW 3.2 km/h 14.5 km/h 66% 0 mm
10:54 6.4 °C 0.3 °C 1017.8 hPa South 6.4 km/h 14.5 km/h 65% 0 mm
10:59 6.7 °C 0.6 °C 1017.8 hPa SSW 3.2 km/h 14.5 km/h 65% 0 mm
11:04 6.8 °C 0.7 °C 1017.5 hPa SSW 6.4 km/h 17.7 km/h 65% 0 mm
11:09 6.9 °C 0.6 °C 1017.5 hPa SSW 8 km/h 17.7 km/h 64% 0 mm
11:14 6.9 °C 0.3 °C 1017.5 hPa SSW 9.7 km/h 17.7 km/h 63% 0 mm
11:19 7.1 °C 0.3 °C 1017.5 hPa SSW 11.3 km/h 17.7 km/h 62% 0 mm
11:24 7.2 °C 0.4 °C 1017.5 hPa SSW 6.4 km/h 20.9 km/h 62% 0 mm
11:29 7.2 °C 0.4 °C 1017.5 hPa SSW 8 km/h 20.9 km/h 62% 0 mm
11:34 7.4 °C 0.6 °C 1017.5 hPa SSW 6.4 km/h 19.3 km/h 62% 0 mm
11:39 7.4 °C 0.3 °C 1017.5 hPa SSW 8 km/h 17.7 km/h 61% 0 mm
11:44 7.4 °C 0.4 °C 1017.5 hPa SSW 9.7 km/h 17.7 km/h 61% 0 mm
11:49 7.4 °C 0.4 °C 1017.5 hPa SW 6.4 km/h 17.7 km/h 61% 0 mm
11:54 7.7 °C 0.4 °C 1017.5 hPa SSW 11.3 km/h 22.5 km/h 60% 0 mm
11:59 7.8 °C 0.5 °C 1017.5 hPa SSW 8 km/h 22.5 km/h 60% 0 mm
12:04 7.9 °C 0.4 °C 1017.5 hPa South 8 km/h 19.3 km/h 59% 0 mm
12:09 8 °C 0.5 °C 1017.2 hPa South 11.3 km/h 17.7 km/h 59% 0 mm
12:14 8 °C 0.5 °C 1017.2 hPa SSW 6.4 km/h 17.7 km/h 59% 0 mm
12:19 8.2 °C 0.4 °C 1017.2 hPa SSW 11.3 km/h 17.7 km/h 58% 0 mm
12:24 8.2 °C 0.4 °C 1017.2 hPa SSW 11.3 km/h 20.9 km/h 58% 0 mm
12:30 8.2 °C 0.4 °C 1017.2 hPa SSW 12.9 km/h 20.9 km/h 58% 0 mm
12:34 8.3 °C 0.5 °C 1017.2 hPa SSW 9.7 km/h 19.3 km/h 58% 0 mm
12:39 8.4 °C 0.1 °C 1017.2 hPa SSW 12.9 km/h 19.3 km/h 56% 0 mm
12:44 8.4 °C 0.2 °C 1017.2 hPa SW 9.7 km/h 19.3 km/h 56% 0 mm
12:49 8.6 °C 0.6 °C 1017.2 hPa SW 8 km/h 17.7 km/h 57% 0 mm
12:54 8.6 °C 0.3 °C 1016.8 hPa SSW 12.9 km/h 19.3 km/h 56% 0 mm
12:59 8.7 °C 0.4 °C 1016.8 hPa South 12.9 km/h 19.3 km/h 56% 0 mm
13:04 8.8 °C 0.5 °C 1017.2 hPa SSW 9.7 km/h 19.3 km/h 56% 0 mm
13:09 8.8 °C 0.5 °C 1016.8 hPa SSW 14.5 km/h 19.3 km/h 56% 0 mm
13:14 8.9 °C 0.6 °C 1016.8 hPa SSW 11.3 km/h 20.9 km/h 56% 0 mm
13:19 9 °C 0.7 °C 1016.5 hPa SSW 11.3 km/h 20.9 km/h 56% 0 mm
13:24 9.1 °C 0.7 °C 1016.8 hPa SSW 9.7 km/h 20.9 km/h 56% 0 mm
13:29 9 °C 0.7 °C 1016.8 hPa SW 12.9 km/h 20.9 km/h 56% 0 mm
13:34 9 °C 1.2 °C 1016.5 hPa SSW 11.3 km/h 20.9 km/h 58% 0 mm
13:39 9.1 °C 0.7 °C 1016.5 hPa SW 9.7 km/h 20.9 km/h 56% 0 mm
13:44 9.2 °C 0.8 °C 1016.1 hPa SSW 8 km/h 20.9 km/h 56% 0 mm
13:49 9.2 °C 0.7 °C 1016.1 hPa SSW 11.3 km/h 22.5 km/h 55% 0 mm
13:54 9.3 °C 0.7 °C 1016.1 hPa SSW 9.7 km/h 22.5 km/h 55% 0 mm
13:59 9.3 °C 0.8 °C 1015.8 hPa SSW 11.3 km/h 20.9 km/h 55% 0 mm
14:04 9.3 °C 0.8 °C 1015.8 hPa SW 16.1 km/h 22.5 km/h 55% 0 mm
14:09 9.4 °C 0.8 °C 1015.8 hPa SW 9.7 km/h 22.5 km/h 55% 0 mm
14:14 9.7 °C 1.1 °C 1015.8 hPa SSW 8 km/h 19.3 km/h 55% 0 mm
14:19 9.7 °C 0.8 °C 1015.5 hPa SW 12.9 km/h 20.9 km/h 54% 0 mm
14:24 9.8 °C 0.9 °C 1015.5 hPa SSW 9.7 km/h 22.5 km/h 54% 0 mm
14:29 10.2 °C 1 °C 1015.5 hPa SW 9.7 km/h 22.5 km/h 53% 0 mm
14:34 10.2 °C 1 °C 1015.5 hPa SSW 14.5 km/h 22.5 km/h 53% 0 mm
14:44 10.3 °C 0.8 °C 1015.5 hPa SSW 8 km/h 22.5 km/h 52% 0 mm
14:49 10.3 °C 0.9 °C 1015.5 hPa SW 11.3 km/h 22.5 km/h 52% 0 mm
14:54 10.4 °C 1 °C 1015.1 hPa SSW 11.3 km/h 19.3 km/h 52% 0 mm
14:59 10.6 °C 1.1 °C 1015.1 hPa SSW 12.9 km/h 20.9 km/h 52% 0 mm
15:04 10.6 °C 1.2 °C 1015.1 hPa SSW 11.3 km/h 24.1 km/h 52% 0 mm
15:09 10.8 °C 1.4 °C 1015.1 hPa SSW 6.4 km/h 24.1 km/h 52% 0 mm
15:14 10.6 °C 1.1 °C 1015.1 hPa SSW 6.4 km/h 19.3 km/h 52% 0 mm
15:19 10.6 °C 1.2 °C 1015.1 hPa SSW 14.5 km/h 22.5 km/h 52% 0 mm
15:24 10.7 °C 1.2 °C 1015.1 hPa SSW 8 km/h 22.5 km/h 52% 0 mm
15:30 10.8 °C 1.4 °C 1015.1 hPa SSW 9.7 km/h 19.3 km/h 52% 0 mm
15:34 10.9 °C 1.4 °C 1015.1 hPa SW 4.8 km/h 17.7 km/h 52% 0 mm
15:39 10.9 °C 1.2 °C 1014.8 hPa SSW 9.7 km/h 17.7 km/h 51% 0 mm
15:44 11.1 °C 1.3 °C 1014.8 hPa SSW 11.3 km/h 20.9 km/h 51% 0 mm
15:49 11.1 °C 1.3 °C 1014.8 hPa SSW 8 km/h 20.9 km/h 51% 0 mm
15:54 11.1 °C 1.3 °C 1014.8 hPa SSW 11.3 km/h 20.9 km/h 51% 0 mm
15:59 11 °C 1.3 °C 1014.8 hPa SSW 14.5 km/h 24.1 km/h 51% 0 mm
16:04 10.8 °C 1.1 °C 1014.8 hPa SSW 11.3 km/h 24.1 km/h 51% 0 mm
16:09 10.9 °C 1.2 °C 1014.8 hPa SSW 9.7 km/h 20.9 km/h 51% 0 mm
16:14 10.8 °C 1.1 °C 1014.8 hPa SSW 6.4 km/h 20.9 km/h 51% 0 mm
16:19 10.6 °C 1.2 °C 1014.8 hPa SSW 8 km/h 14.5 km/h 52% 0 mm
16:24 10.4 °C 1 °C 1014.8 hPa SSW 8 km/h 12.9 km/h 52% 0 mm
16:30 10.4 °C 1 °C 1014.8 hPa SW 8 km/h 20.9 km/h 52% 0 mm
16:34 10.6 °C 0.9 °C 1014.4 hPa SW 11.3 km/h 25.7 km/h 51% 0 mm
16:39 10.8 °C 0.8 °C 1014.4 hPa SW 11.3 km/h 25.7 km/h 50% 0 mm
16:44 10.9 °C 0.9 °C 1014.4 hPa SSW 12.9 km/h 24.1 km/h 50% 0 mm
16:49 11 °C 1 °C 1014.1 hPa SSW 12.9 km/h 20.9 km/h 50% 0 mm
16:54 10.8 °C 0.8 °C 1014.1 hPa SW 9.7 km/h 20.9 km/h 50% 0 mm
16:59 10.7 °C 0.7 °C 1014.1 hPa SSW 9.7 km/h 20.9 km/h 50% 0 mm
17:04 10.7 °C 1 °C 1014.1 hPa SSW 9.7 km/h 20.9 km/h 51% 0 mm
17:09 10.7 °C 0.9 °C 1014.1 hPa SSW 8 km/h 20.9 km/h 51% 0 mm
17:14 10.5 °C 1.1 °C 1013.8 hPa SW 9.7 km/h 16.1 km/h 52% 0 mm
17:19 10.4 °C 1 °C 1013.8 hPa SSW 8 km/h 19.3 km/h 52% 0 mm
17:24 10.4 °C 0.9 °C 1013.8 hPa SSW 9.7 km/h 22.5 km/h 52% 0 mm
17:30 10.3 °C 0.9 °C 1013.8 hPa SSW 6.4 km/h 22.5 km/h 52% 0 mm
17:35 10.3 °C 0.8 °C 1013.8 hPa SSW 9.7 km/h 16.1 km/h 52% 0 mm
17:44 10.1 °C 0.9 °C 1013.4 hPa SSW 8 km/h 19.3 km/h 53% 0 mm
17:49 9.9 °C 0.8 °C 1013.4 hPa SSW 8 km/h 19.3 km/h 53% 0 mm
17:54 9.8 °C 0.9 °C 1013.4 hPa SW 11.3 km/h 19.3 km/h 54% 0 mm
17:59 9.7 °C 0.8 °C 1013.8 hPa SSW 8 km/h 19.3 km/h 54% 0 mm
18:04 9.5 °C 0.9 °C 1013.8 hPa SSW 6.4 km/h 16.1 km/h 55% 0 mm
18:09 9.4 °C 0.8 °C 1013.8 hPa SSW 3.2 km/h 16.1 km/h 55% 0 mm
18:14 9.3 °C 0.7 °C 1013.4 hPa SSW 4.8 km/h 11.3 km/h 55% 0 mm
18:19 9.3 °C 0.8 °C 1013.4 hPa SSW 9.7 km/h 12.9 km/h 55% 0 mm
18:24 9.3 °C 0.8 °C 1013.4 hPa SW 6.4 km/h 17.7 km/h 55% 0 mm
18:29 9.2 °C 0.9 °C 1013.4 hPa SSW 9.7 km/h 17.7 km/h 56% 0 mm
18:34 9.2 °C 0.8 °C 1013.4 hPa SSW 8 km/h 17.7 km/h 56% 0 mm
18:39 9.1 °C 1 °C 1013.1 hPa SSW 9.7 km/h 17.7 km/h 57% 0 mm
18:44 8.8 °C 0.8 °C 1013.1 hPa SSW 4.8 km/h 17.7 km/h 57% 0 mm
18:49 8.7 °C 0.9 °C 1013.1 hPa SSW 8 km/h 11.3 km/h 58% 0 mm
18:54 8.5 °C 0.9 °C 1013.1 hPa SSW 6.4 km/h 12.9 km/h 59% 0 mm
18:59 8.4 °C 0.9 °C 1013.1 hPa SSW 6.4 km/h 12.9 km/h 59% 0 mm
19:04 8.4 °C 0.8 °C 1013.1 hPa SSW 4.8 km/h 11.3 km/h 59% 0 mm
19:09 8.2 °C 0.9 °C 1013.1 hPa SSW 4.8 km/h 11.3 km/h 60% 0 mm
19:14 8.1 °C 0.8 °C 1013.1 hPa SSW 3.2 km/h 6.4 km/h 60% 0 mm
19:19 7.9 °C 0.8 °C 1012.8 hPa SSW 4.8 km/h 11.3 km/h 61% 0 mm
19:24 7.7 °C 0.6 °C 1012.8 hPa SSW 3.2 km/h 11.3 km/h 61% 0 mm
19:29 7.7 °C 0.7 °C 1012.4 hPa SSW 4.8 km/h 9.7 km/h 61% 0 mm
19:34 7.7 °C 0.9 °C 1012.4 hPa SSW 4.8 km/h 11.3 km/h 62% 0 mm
19:39 7.7 °C 0.9 °C 1012.4 hPa SSW 6.4 km/h 14.5 km/h 62% 0 mm
19:44 7.8 °C 0.8 °C 1012.4 hPa SSW 6.4 km/h 14.5 km/h 61% 0 mm
19:49 7.8 °C 0.8 °C 1012.4 hPa SSW 1.6 km/h 11.3 km/h 61% 0 mm
19:54 7.7 °C 0.8 °C 1012.4 hPa SSW 6.4 km/h 11.3 km/h 62% 0 mm
19:59 7.6 °C 0.7 °C 1012.4 hPa SSW 6.4 km/h 9.7 km/h 62% 0 mm
20:04 7.6 °C 0.8 °C 1012.4 hPa SSW 6.4 km/h 11.3 km/h 62% 0 mm
20:09 7.6 °C 0.7 °C 1012.4 hPa SSW 4.8 km/h 11.3 km/h 62% 0 mm
20:14 7.7 °C 0.8 °C 1012.4 hPa SSW 6.4 km/h 12.9 km/h 62% 0 mm
20:19 7.7 °C 0.7 °C 1012.4 hPa SSW 4.8 km/h 12.9 km/h 61% 0 mm
20:24 7.8 °C 0.7 °C 1012.1 hPa SSW 6.4 km/h 12.9 km/h 61% 0 mm
20:29 7.8 °C 0.5 °C 1012.1 hPa SSW 8 km/h 16.1 km/h 60% 0 mm
20:34 7.7 °C 0.4 °C 1012.1 hPa SSW 4.8 km/h 16.1 km/h 60% 0 mm
20:39 7.8 °C 0.5 °C 1012.1 hPa SSW 6.4 km/h 14.5 km/h 60% 0 mm
20:44 7.7 °C 0.4 °C 1011.7 hPa SSW 9.7 km/h 17.7 km/h 60% 0 mm
20:49 7.8 °C 0.5 °C 1011.7 hPa SW 6.4 km/h 17.7 km/h 60% 0 mm
20:54 7.9 °C 0.4 °C 1011.7 hPa SW 6.4 km/h 12.9 km/h 59% 0 mm
20:59 7.9 °C 0.4 °C 1011.7 hPa SW 9.7 km/h 17.7 km/h 59% 0 mm
21:04 8 °C 0.5 °C 1011.7 hPa SSW 8 km/h 17.7 km/h 59% 0 mm
21:09 8.1 °C 0.3 °C 1011.7 hPa SSW 9.7 km/h 16.1 km/h 58% 0 mm
21:14 8.2 °C 0.4 °C 1011.4 hPa SSW 11.3 km/h 17.7 km/h 58% 0 mm
21:19 8.2 °C 0.4 °C 1011.1 hPa SSW 6.4 km/h 17.7 km/h 58% 0 mm
21:24 8.3 °C 0.3 °C 1011.1 hPa SSW 11.3 km/h 17.7 km/h 57% 0 mm
21:29 8.3 °C 0.3 °C 1010.7 hPa SSW 9.7 km/h 19.3 km/h 57% 0 mm
21:34 8.2 °C 0.2 °C 1010.4 hPa SSW 8 km/h 19.3 km/h 57% 0 mm
21:39 8.4 °C 0.4 °C 1010.4 hPa SSW 11.3 km/h 22.5 km/h 57% 0 mm
21:44 8.4 °C 0.4 °C 1010.4 hPa SW 4.8 km/h 22.5 km/h 57% 0 mm
21:49 8.3 °C 0.3 °C 1010 hPa SSW 8 km/h 22.5 km/h 57% 0 mm
21:54 8.5 °C 0.4 °C 1010 hPa SSW 9.7 km/h 24.1 km/h 57% 0 mm
22:04 8.4 °C 0.4 °C 1009.7 hPa SSW 9.7 km/h 20.9 km/h 57% 0 mm
22:09 8.5 °C 0.4 °C 1009.7 hPa SSW 8 km/h 20.9 km/h 57% 0 mm
22:14 8.6 °C 0.5 °C 1009.7 hPa SSW 9.7 km/h 20.9 km/h 57% 0 mm
22:19 8.5 °C 0.7 °C 1010 hPa SSW 11.3 km/h 24.1 km/h 58% 0 mm
22:24 8.6 °C 0.8 °C 1009.7 hPa SW 12.9 km/h 24.1 km/h 58% 0 mm
22:29 8.6 °C 0.8 °C 1009.4 hPa SSW 12.9 km/h 24.1 km/h 58% 0 mm
22:34 8.4 °C 0.7 °C 1009 hPa SSW 12.9 km/h 24.1 km/h 58% 0 mm
22:39 8.4 °C 0.7 °C 1009 hPa SSW 11.3 km/h 22.5 km/h 58% 0 mm
22:44 8.4 °C 0.7 °C 1008.7 hPa SSW 12.9 km/h 22.5 km/h 58% 0 mm
22:49 8.3 °C 0.6 °C 1008.7 hPa SSW 11.3 km/h 33.8 km/h 58% 0 mm
22:54 8.4 °C 0.8 °C 1009 hPa SW 12.9 km/h 33.8 km/h 59% 0 mm
22:59 8.6 °C 0.8 °C 1009 hPa SW 16.1 km/h 30.6 km/h 58% 0 mm
23:04 8.7 °C 0.9 °C 1008.7 hPa SSW 11.3 km/h 27.4 km/h 58% 0 mm
23:09 8.6 °C 0.8 °C 1008.4 hPa SSW 12.9 km/h 29 km/h 58% 0 mm
23:14 8.6 °C 0.8 °C 1008.4 hPa SSW 12.9 km/h 29 km/h 58% 0 mm
23:19 8.5 °C 0.7 °C 1008.4 hPa SSW 8 km/h 27.4 km/h 58% 0 mm
23:24 8.7 °C 0.9 °C 1008 hPa SSW 12.9 km/h 27.4 km/h 58% 0 mm
23:29 8.6 °C 0.8 °C 1008 hPa SSW 9.7 km/h 33.8 km/h 58% 0 mm
23:34 8.5 °C 0.7 °C 1008 hPa SSW 12.9 km/h 33.8 km/h 58% 0 mm
23:39 8.6 °C 0.8 °C 1008 hPa SSW 14.5 km/h 29 km/h 58% 0 mm
23:44 8.5 °C 0.7 °C 1007.7 hPa SSW 17.7 km/h 29 km/h 58% 0 mm
23:49 8.4 °C 0.8 °C 1007.7 hPa SSW 14.5 km/h 29 km/h 59% 0 mm
23:54 8.4 °C 0.8 °C 1007.7 hPa SSW 12.9 km/h 33.8 km/h 59% 0 mm
23:59 8.3 °C 0.8 °C 1007.3 hPa SSW 17.7 km/h 33.8 km/h 59% 0 mm
Westford Weather
Compliments of Weather Underground

 
 
Current Radar Loop:

Copyright © WestfordWeather.net 2007-2014. All rights reserved.